Location: Heilbronn
(49.1548°N, 9.2780°E)
Time: 12:27:51
(UTC+01:00)

Amateur Radio Satellites - All Passes

Search period start: 25 November 2017 11:57
Search period end: 26 November 2017 11:57
Location: Heilbronn, 49.1548°N, 9.2780°E

Satellite Date Start Highest point End Downlink Frequencies (MHz)
Time Altitude Azimuth
EO-88 25 Nov 12:00:10 12:01:54 13° 299° (WNW) 12:03:37 145.990 - 145.960
Oscar 19 25 Nov 12:00:19 12:04:49 32° 63° (ENE) 12:09:21 437.125/150
O/OREOS (USA 219) 25 Nov 12:02:26 12:05:40 19° 101° (E) 12:08:54 437.305
LO-87 25 Nov 12:08:40 12:12:09 55° 287° (WNW) 12:15:36 145.935 - 145.965
ESTCUBE 1 25 Nov 12:10:31 12:15:05 90° 83° (E) 12:19:38 437.505/2401.250
VELOX 1 25 Nov 12:12:07 12:15:10 18° 90° (E) 12:18:11 145.980
M-CUBED/EXP-1 PRIME 25 Nov 12:13:41 12:14:06 10° 46° (NE) 12:14:32 437.505
DUCHIFAT 1 25 Nov 12:30:47 12:34:18 25° 266° (W) 12:37:49 145.980
SPROUT 25 Nov 12:34:12 12:38:16 43° 98° (E) 12:42:18 437.525
NANOSAT C BR1 25 Nov 12:44:54 12:47:42 17° 269° (W) 12:50:31 145.865
EO-79 25 Nov 12:45:01 12:47:35 16° 270° (W) 12:50:11 145.935-145.965
AO-91 25 Nov 12:57:20 13:02:47 85° 73° (ENE) 13:08:05 145.960
Gurwin Techsat 1B 25 Nov 13:00:24 13:05:42 73° 72° (ENE) 13:11:02 435.225
POLYITAN 1 25 Nov 13:03:30 13:04:26 11° 273° (W) 13:05:22 437.675
AO-85 25 Nov 13:03:43 13:07:30 24° 244° (WSW) 13:11:29 145.980
BUGSAT 1 25 Nov 13:04:50 13:08:46 39° 262° (W) 13:12:40 437.445
UKube-1 25 Nov 13:16:51 13:18:34 12° 88° (E) 13:20:17 .
AO-7 25 Nov 13:17:43 13:25:03 37° 53° (NE) 13:32:24 .
YUBILEINY 25 Nov 13:26:41 13:28:01 10° 38° (NE) 13:29:20 435.215
Oscar 19 25 Nov 13:39:14 13:44:02 41° 262° (W) 13:48:54 437.125/150
O/OREOS (USA 219) 25 Nov 13:40:05 13:44:38 59° 300° (WNW) 13:49:13 437.305
M-CUBED/EXP-1 PRIME 25 Nov 13:43:52 13:47:35 66° 67° (ENE) 13:51:40 437.505
VELOX 1 25 Nov 13:47:35 13:51:59 58° 289° (WNW) 13:56:20 145.980
ESTCUBE 1 25 Nov 13:48:54 13:51:13 14° 304° (WNW) 13:53:33 437.505/2401.250
ITAMSAT 1 25 Nov 14:02:42 14:07:09 29° 61° (ENE) 14:11:37 435.822/435.867
50 SAT 25 Nov 14:09:00 14:12:15 74° 103° (ESE) 14:15:26 437.505
SPROUT 25 Nov 14:10:35 14:13:56 23° 297° (WNW) 14:17:16 437.525
NO-84 25 Nov 14:12:19 14:15:39 35° 137° (SE) 14:19:15 435.350 FM
DX 1 25 Nov 14:18:27 14:22:51 75° 103° (ESE) 14:27:14 434.975-435.025
DOVE 4 25 Nov 14:30:49 14:32:29 11° 51° (NE) 14:34:09 437.250
ITUPSAT 1 25 Nov 14:32:22 14:34:05 12° 86° (E) 14:35:49 437.325
AO-91 25 Nov 14:36:24 14:39:47 17° 273° (W) 14:43:06 145.960
Gurwin Techsat 1B 25 Nov 14:42:34 14:46:13 19° 271° (W) 14:49:53 435.225
UKube-1 25 Nov 14:50:49 14:55:10 82° 288° (WNW) 14:59:29 .
AO-7 25 Nov 15:09:08 15:17:22 68° 254° (WSW) 15:25:41 .
YUBILEINY 25 Nov 15:19:59 15:28:10 39° 66° (ENE) 15:36:17 435.215
M-CUBED/EXP-1 PRIME 25 Nov 15:20:41 15:22:32 13° 267° (W) 15:24:27 437.505
O/OREOS (USA 219) 25 Nov 15:23:06 15:25:04 12° 322° (NW) 15:27:02 437.305
MOZHAYETS 4 25 Nov 15:36:29 15:41:02 62° 101° (E) 15:45:34
ITAMSAT 1 25 Nov 15:41:21 15:46:24 48° 260° (W) 15:51:29 435.822/435.867
NO-84 25 Nov 15:49:08 15:52:52 56° 338° (NNW) 15:56:53 435.350 FM
BEESAT 25 Nov 15:54:57 15:59:43 68° 103° (ESE) 16:04:26 436.000
DX 1 25 Nov 15:55:52 15:58:30 16° 302° (WNW) 16:01:08 434.975-435.025
CUBESAT XI-V 25 Nov 16:00:30 16:04:37 29° 94° (E) 16:08:43 437.345
DOVE 4 25 Nov 16:03:59 16:09:03 58° 71° (ENE) 16:14:16 437.250
ITUPSAT 1 25 Nov 16:07:51 16:12:39 86° 105° (ESE) 16:17:24 437.325
CUTE-I 25 Nov 16:08:48 16:12:24 19° 55° (NE) 16:16:01 437.470
HO-68 25 Nov 16:11:31 16:15:54 18° 45° (NE) 16:20:17 435.675
XW-2C 25 Nov 16:20:28 16:22:43 16° 62° (ENE) 16:24:59 145.795 - 145.815
XW-2F 25 Nov 16:26:32 16:28:56 17° 62° (ENE) 16:31:21 145.980 - 146.000
LilacSat-2 25 Nov 16:27:47 16:30:32 19° 64° (ENE) 16:33:17 437.200
UKube-1 25 Nov 16:28:47 16:30:28 12° 305° (NW) 16:32:09 .
KAITUO 1B 25 Nov 16:45:45 16:48:31 20° 64° (ENE) 16:51:18 145.475/437.950
KKS-1 25 Nov 16:55:06 16:58:41 23° 93° (E) 17:02:13 437.445
STARS 25 Nov 17:07:02 17:09:03 13° 88° (E) 17:11:04 437.465
AO-7 25 Nov 17:07:19 17:11:46 15° 276° (W) 17:16:14 .
XW-2D 25 Nov 17:11:54 17:15:32 52° 72° (ENE) 17:19:13 145.860 - 145.880
MOZHAYETS 4 25 Nov 17:14:34 17:17:45 19° 300° (WNW) 17:20:58
YUBILEINY 25 Nov 17:16:47 17:25:24 59° 269° (W) 17:33:59 435.215
NUDT-PHONESAT 25 Nov 17:21:10 17:24:39 44° 71° (ENE) 17:28:10 437.300
RS-15 25 Nov 17:24:53 17:35:43 39° 107° (ESE) 17:46:28 29.354- 29.394
XW-2B 25 Nov 17:26:48 17:30:32 75° 75° (ENE) 17:34:18 145.730 - 145.750
NO-84 25 Nov 17:27:05 17:30:45 35° 359° (N) 17:34:38 435.350 FM
BEESAT 25 Nov 17:33:41 17:37:01 19° 302° (WNW) 17:40:19 436.000
CUBESAT XI-V 25 Nov 17:37:43 17:42:04 38° 293° (WNW) 17:46:24 437.345
DOVE 4 25 Nov 17:42:57 17:47:05 24° 270° (W) 17:51:18 437.250
CUTE-I 25 Nov 17:46:24 17:51:47 85° 255° (WSW) 17:57:13 437.470
ITUPSAT 1 25 Nov 17:47:01 17:49:50 16° 304° (NW) 17:52:38 437.325
XW-2C 25 Nov 17:52:51 17:56:29 53° 260° (W) 18:00:12 145.795 - 145.815
HO-68 25 Nov 17:55:15 18:02:20 63° 66° (ENE) 18:09:26 435.675
XW-2F 25 Nov 17:59:05 18:02:41 48° 260° (W) 18:06:21 145.980 - 146.000
LilacSat-2 25 Nov 18:00:59 18:04:33 40° 262° (W) 18:08:09 437.200
CUTE 1.7 + AOD 2 25 Nov 18:06:18 18:10:24 52° 71° (ENE) 18:14:31 437.475
CUBEBUG 2 25 Nov 18:15:42 18:19:55 41° 69° (ENE) 18:24:02 437.445
KAITUO 1B 25 Nov 18:18:50 18:22:16 37° 262° (W) 18:25:45 145.475/437.950
AAUSAT CUBESAT 2 25 Nov 18:20:28 18:23:43 23° 64° (ENE) 18:27:00 437.432
SEEDS 25 Nov 18:27:23 18:31:27 53° 72° (ENE) 18:35:34 437.485
KKS-1 25 Nov 18:31:10 18:35:26 44° 292° (WNW) 18:39:39 437.445
STARS 25 Nov 18:41:33 18:45:58 78° 285° (WNW) 18:50:20 437.465
ZACube-1 25 Nov 18:42:39 18:46:08 25° 65° (ENE) 18:49:36 437.345
XW-2D 25 Nov 18:47:57 18:50:02 14° 270° (W) 18:52:07 145.860 - 145.880
STRAND 1 25 Nov 18:49:40 18:53:15 19° 90° (E) 18:56:47 437.568
NUDT-PHONESAT 25 Nov 18:56:27 18:58:44 16° 269° (W) 19:01:03 437.300
UWE-3 25 Nov 19:02:16 19:06:37 69° 74° (ENE) 19:10:52 435.000/436.395/437.385
XW-2A 25 Nov 19:02:17 19:05:33 60° 74° (ENE) 19:08:52 145.665 - 145.685
XW-2B 25 Nov 19:04:39 19:05:13 10° 273° (W) 19:05:46 145.730 - 145.750
NO-84 25 Nov 19:04:40 19:08:41 53° 20° (NNE) 19:12:51 435.350 FM
FO-29 25 Nov 19:11:43 19:15:51 15° 79° (E) 19:19:50 435.910
YUBILEINY 25 Nov 19:16:39 19:20:10 13° 292° (WNW) 19:23:43 435.215
ISS 25 Nov 19:16:43 19:18:46 16° 138° (SE) 19:20:49 437.550
AO-73 25 Nov 19:29:48 19:33:59 64° 74° (ENE) 19:38:07 145.935
CUTE-I 25 Nov 19:29:56 19:32:39 14° 274° (W) 19:35:22 437.470
RS-15 25 Nov 19:34:55 19:47:19 80° 312° (NW) 19:59:34 29.354- 29.394
Oscar 11 25 Nov 19:40:39 19:44:52 57° 71° (ENE) 19:49:06 .
DELFI C3 25 Nov 19:42:08 19:44:23 15° 60° (ENE) 19:46:37 145.870
CUTE 1.7 + AOD 2 25 Nov 19:43:38 19:46:32 18° 270° (W) 19:49:28 437.475
HO-68 25 Nov 19:44:16 19:50:31 31° 267° (W) 19:56:48 435.675
Max Valier Satellite 25 Nov 19:48:47 19:49:37 11° 59° (ENE) 19:50:26 145.860
nSIGHT-1 25 Nov 19:52:05 19:55:00 33° 147° (SSE) 19:57:57 .
CUBEBUG 2 25 Nov 19:53:00 19:56:40 24° 267° (W) 20:00:16 437.445
AAUSAT CUBESAT 2 25 Nov 19:55:01 19:58:57 41° 262° (W) 20:02:55 437.432
SEEDS 25 Nov 20:04:41 20:07:28 17° 270° (W) 20:10:17 437.485
ZACube-1 25 Nov 20:18:19 20:22:17 37° 263° (W) 20:26:12 437.345
STARS 25 Nov 20:19:57 20:21:32 12° 306° (NW) 20:23:08 437.465
SO-50 25 Nov 20:25:54 20:29:27 23° 115° (ESE) 20:33:02 436.795
STRAND 1 25 Nov 20:27:50 20:32:56 68° 289° (WNW) 20:38:00 437.568
O/OREOS (USA 219) 25 Nov 20:28:38 20:31:06 14° 40° (NE) 20:33:33 437.305
UWE-3 25 Nov 20:41:11 20:43:31 14° 271° (W) 20:45:50 435.000/436.395/437.385
NO-84 25 Nov 20:42:02 20:46:05 47° 219° (SW) 20:50:10 435.350 FM
ISS 25 Nov 20:51:32 20:54:48 71° 156° (SSE) 20:58:04 437.550
FO-29 25 Nov 20:54:35 21:02:26 66° 101° (E) 21:09:43 435.910
EO-88 25 Nov 21:06:07 21:09:38 49° 72° (ENE) 21:13:09 145.990 - 145.960
AO-73 25 Nov 21:08:17 21:10:38 15° 271° (W) 21:13:00 145.935
DELFI C3 25 Nov 21:14:40 21:18:37 67° 258° (WSW) 21:22:37 145.870
LO-87 25 Nov 21:17:34 21:18:32 11° 59° (ENE) 21:19:31 145.935 - 145.965
Oscar 11 25 Nov 21:18:34 21:21:22 17° 270° (W) 21:24:11 .
Max Valier Satellite 25 Nov 21:19:12 21:22:51 82° 257° (WSW) 21:26:31 145.860
nSIGHT-1 25 Nov 21:27:53 21:31:06 70° 346° (NNW) 21:34:19 .
ESTCUBE 1 25 Nov 21:38:42 21:41:50 19° 60° (ENE) 21:44:58 437.505/2401.250
RS-15 25 Nov 21:50:22 22:01:53 42° 342° (NNW) 22:13:06 29.354- 29.394
PRISM 25 Nov 21:54:53 21:57:19 15° 90° (E) 21:59:43 437.425
SO-50 25 Nov 22:05:10 22:09:35 56° 315° (NW) 22:14:04 436.795
O/OREOS (USA 219) 25 Nov 22:06:48 22:11:23 73° 63° (ENE) 22:15:53 437.305
STRAND 1 25 Nov 22:09:01 22:11:12 13° 308° (NW) 22:13:23 437.568
UNISAT 6 25 Nov 22:25:34 22:29:52 85° 104° (ESE) 22:34:08 437.425
ISS 25 Nov 22:28:09 22:31:23 53° 356° (N) 22:34:37 437.550
TIGRISAT 25 Nov 22:28:31 22:32:49 84° 106° (ESE) 22:37:04 435.000
FO-29 25 Nov 22:40:03 22:46:57 35° 302° (WNW) 22:53:31 435.910
EO-88 25 Nov 22:41:31 22:43:33 14° 270° (W) 22:45:36 145.990 - 145.960
PCSat 25 Nov 22:41:58 22:45:57 21° 108° (ESE) 22:49:57 145.827
LO-87 25 Nov 22:47:47 22:51:24 77° 259° (W) 22:55:00 145.935 - 145.965
AIST 2D 25 Nov 22:59:14 23:02:05 22° 94° (E) 23:04:56 435.315
nSIGHT-1 25 Nov 23:04:23 23:07:33 54° 5° (N) 23:10:43 .
POLYITAN 1 25 Nov 23:06:49 23:07:47 11° 87° (E) 23:08:45 437.675
VELOX 1 25 Nov 23:12:48 23:16:32 27° 64° (ENE) 23:20:17 145.980
ESTCUBE 1 25 Nov 23:13:46 23:18:12 62° 259° (WSW) 23:22:42 437.505/2401.250
QB50P2 25 Nov 23:28:45 23:31:54 20° 92° (E) 23:35:03 145.880/145.840
PRISM 25 Nov 23:28:51 23:32:59 62° 288° (WNW) 23:37:04 437.425
SPROUT 25 Nov 23:30:54 23:35:05 55° 71° (ENE) 23:39:16 437.525
DX 1 25 Nov 23:43:41 23:46:16 16° 58° (ENE) 23:48:51 434.975-435.025
O/OREOS (USA 219) 25 Nov 23:47:37 23:50:11 15° 261° (W) 23:52:43 437.305
SO-50 25 Nov 23:47:59 23:51:00 17° 337° (NNW) 23:54:02 436.795
UNISAT 6 26 Nov 00:03:57 00:05:57 13° 303° (WNW) 00:07:58 437.425
ISS 26 Nov 00:04:48 00:08:05 75° 16° (NNE) 00:11:20 437.550
RS-15 26 Nov 00:06:44 00:18:04 41° 16° (NNE) 00:28:56 29.354- 29.394
TIGRISAT 26 Nov 00:06:51 00:08:54 13° 303° (WNW) 00:10:56 435.000
DUCHIFAT 1 26 Nov 00:09:38 00:13:30 36° 97° (E) 00:17:20 145.980
UKube-1 26 Nov 00:14:26 00:17:29 19° 60° (ENE) 00:20:33 .
NANOSAT C BR1 26 Nov 00:23:00 00:27:09 56° 101° (E) 00:31:15 145.865
EO-79 26 Nov 00:23:12 00:27:23 64° 102° (ESE) 00:31:32 145.935-145.965
PCSat 26 Nov 00:23:23 00:28:48 73° 307° (NW) 00:34:16 145.827
FO-29 26 Nov 00:28:13 00:29:42 11° 325° (NW) 00:31:11 435.910
AIST 2D 26 Nov 00:32:10 00:35:16 29° 291° (WNW) 00:38:21 435.315
50 SAT 26 Nov 00:39:19 00:42:23 42° 71° (ENE) 00:45:28 437.505
POLYITAN 1 26 Nov 00:39:58 00:44:11 87° 279° (W) 00:48:22 437.675
nSIGHT-1 26 Nov 00:40:41 00:43:52 64° 205° (SSW) 00:47:01 .
BUGSAT 1 26 Nov 00:42:36 00:45:41 21° 93° (E) 00:48:44 437.445
AO-91 26 Nov 00:46:01 00:47:53 12° 84° (E) 00:49:40 145.960
VELOX 1 26 Nov 00:48:38 00:52:48 39° 262° (W) 00:57:02 145.980
QB50P2 26 Nov 01:03:54 01:07:55 45° 291° (WNW) 01:11:56 145.880/145.840
MOZHAYETS 4 26 Nov 01:07:37 01:10:05 15° 57° (ENE) 01:12:32
SPROUT 26 Nov 01:08:24 01:11:18 18° 269° (W) 01:14:12 437.525
Gurwin Techsat 1B 26 Nov 01:13:08 01:17:07 21° 90° (E) 01:21:02 435.225
DX 1 26 Nov 01:17:31 01:21:53 76° 255° (WSW) 01:26:19 434.975-435.025
BEESAT 3 26 Nov 01:23:03 01:26:20 25° 117° (ESE) 01:29:39 437.485
BEESAT 26 Nov 01:29:16 01:32:38 19° 58° (ENE) 01:35:59 436.000
SO-50 26 Nov 01:31:39 01:33:17 12° 2° (N) 01:34:57 436.795
ISS 26 Nov 01:41:28 01:44:22 29° 215° (SW) 01:47:15 437.550
ITUPSAT 1 26 Nov 01:41:57 01:45:44 24° 61° (ENE) 01:49:31 437.325
DUCHIFAT 1 26 Nov 01:45:34 01:49:02 26° 295° (WNW) 01:52:28 145.980
Oscar 19 26 Nov 01:46:00 01:51:03 50° 100° (E) 01:56:05 437.125/150
UKube-1 26 Nov 01:48:51 01:53:07 57° 259° (W) 01:57:25 .
NANOSAT C BR1 26 Nov 01:59:37 02:02:28 18° 299° (WNW) 02:05:18 145.865
EO-79 26 Nov 02:00:03 02:02:41 16° 300° (WNW) 02:05:19 145.935-145.965
PCSat 26 Nov 02:09:03 02:13:08 21° 330° (NNW) 02:17:14 145.827
50 SAT 26 Nov 02:13:03 02:14:40 13° 269° (W) 02:16:18 437.505
BUGSAT 1 26 Nov 02:17:25 02:21:13 40° 291° (WNW) 02:24:58 437.445
POLYITAN 1 26 Nov 02:17:42 02:19:17 12° 304° (WNW) 02:20:52 437.675
nSIGHT-1 26 Nov 02:17:56 02:19:35 13° 223° (SW) 02:21:13 .
AO-91 26 Nov 02:20:33 02:25:06 76° 287° (WNW) 02:29:08 145.960
RS-15 26 Nov 02:20:38 02:32:44 77° 47° (NE) 02:44:08 29.354- 29.394
MOZHAYETS 4 26 Nov 02:42:02 02:46:36 86° 254° (WSW) 02:51:11
BEESAT 2 26 Nov 02:46:14 02:50:07 49° 123° (ESE) 02:54:03 435.950
M-CUBED/EXP-1 PRIME 26 Nov 02:51:59 02:55:59 28° 100° (E) 03:00:00 437.505
Gurwin Techsat 1B 26 Nov 02:52:13 02:57:31 65° 289° (WNW) 03:02:47 435.225
BEESAT 3 26 Nov 02:59:50 03:03:41 45° 316° (NW) 03:07:34 437.485
BEESAT 26 Nov 03:05:11 03:09:56 67° 257° (WSW) 03:14:42 436.000
AO-7 26 Nov 03:06:10 03:13:33 33° 95° (E) 03:20:53 .
CUBESAT XI-V 26 Nov 03:07:26 03:11:48 45° 69° (ENE) 03:16:14 437.345
SO-50 26 Nov 03:12:06 03:15:30 20° 27° (NNE) 03:18:56 436.795
ITUPSAT 1 26 Nov 03:18:36 03:23:16 52° 260° (W) 03:27:57 437.325
AO-85 26 Nov 03:21:30 03:25:10 40° 121° (ESE) 03:29:02 145.980
Oscar 19 26 Nov 03:25:49 03:30:07 27° 299° (WNW) 03:34:25 437.125/150
ITAMSAT 1 26 Nov 03:49:46 03:54:45 43° 99° (E) 03:59:40 435.822/435.867
KKS-1 26 Nov 03:56:37 04:00:42 36° 66° (ENE) 04:04:49 437.445
PCSat 26 Nov 03:56:49 03:58:43 12° 356° (N) 04:00:38 145.827
AO-91 26 Nov 03:59:11 04:00:36 11° 308° (NW) 04:01:58 145.960
DOVE 4 26 Nov 04:00:50 04:03:00 13° 83° (E) 04:05:09 437.250
STARS 26 Nov 04:06:47 04:10:06 21° 61° (ENE) 04:13:25 437.465
MOZHAYETS 4 26 Nov 04:23:08 04:24:28 11° 274° (W) 04:25:47
BEESAT 2 26 Nov 04:24:33 04:28:02 27° 323° (NW) 04:31:35 435.950
M-CUBED/EXP-1 PRIME 26 Nov 04:26:06 04:30:25 42° 297° (WNW) 04:34:47 437.505
YUBILEINY 26 Nov 04:26:44 04:34:30 37° 84° (E) 04:42:18 435.215
RS-15 26 Nov 04:33:49 04:44:16 39° 253° (WSW) 04:54:17 29.354- 29.394
Gurwin Techsat 1B 26 Nov 04:34:11 04:36:30 13° 309° (NW) 04:38:48 435.225
BEESAT 3 26 Nov 04:40:12 04:42:11 13° 338° (NNW) 04:44:09 437.485
CUBESAT XI-V 26 Nov 04:45:38 04:49:23 24° 268° (W) 04:53:10 437.345
SO-50 26 Nov 04:52:06 04:56:44 72° 48° (NE) 05:01:25 436.795
AO-7 26 Nov 04:58:37 05:06:54 69° 296° (WNW) 05:15:10 .
AO-85 26 Nov 05:02:06 05:05:40 31° 323° (NW) 05:09:26 145.980
XW-2C 26 Nov 05:22:35 05:24:11 12° 88° (E) 05:25:47 145.795 - 145.815
XW-2F 26 Nov 05:28:03 05:29:53 13° 89° (E) 05:31:43 145.980 - 146.000
ITAMSAT 1 26 Nov 05:29:30 05:34:05 32° 298° (WNW) 05:38:38 435.822/435.867
FO-29 26 Nov 05:30:01 05:33:32 14° 41° (NE) 05:37:09 435.910
LilacSat-2 26 Nov 05:30:33 05:33:02 16° 91° (E) 05:35:29 437.200
KKS-1 26 Nov 05:33:24 05:37:19 29° 265° (W) 05:41:15 437.445
DOVE 4 26 Nov 05:36:21 05:41:33 84° 103° (ESE) 05:46:26 437.250
PCSat 26 Nov 05:41:09 05:44:31 16° 22° (NNE) 05:47:52 145.827
STARS 26 Nov 05:41:46 05:46:06 53° 259° (W) 05:50:27 437.465
KAITUO 1B 26 Nov 05:46:09 05:48:33 16° 91° (E) 05:50:58 145.475/437.950
CUTE-I 26 Nov 05:59:37 06:04:12 28° 94° (E) 06:08:45 437.470
BEESAT 2 26 Nov 06:06:14 06:07:05 11° 345° (NNW) 06:07:56 435.950
STRAND 1 26 Nov 06:09:03 06:13:51 41° 66° (ENE) 06:18:39 437.568
XW-2D 26 Nov 06:14:02 06:17:43 44° 98° (E) 06:21:23 145.860 - 145.880
NUDT-PHONESAT 26 Nov 06:20:35 06:24:02 34° 97° (E) 06:27:28 437.300
YUBILEINY 26 Nov 06:22:15 06:30:54 60° 286° (WNW) 06:39:40 435.215
XW-2B 26 Nov 06:29:00 06:32:48 62° 102° (ESE) 06:36:36 145.730 - 145.750
SO-50 26 Nov 06:33:27 06:36:44 19° 247° (WSW) 06:40:04 436.795
AO-85 26 Nov 06:45:46 06:47:26 12° 347° (NNW) 06:49:08 145.980
AO-7 26 Nov 06:52:25 06:58:17 22° 319° (NW) 07:04:10 .
XW-2C 26 Nov 06:54:59 06:58:47 66° 287° (WNW) 07:02:35 145.795 - 145.815
XW-2F 26 Nov 07:00:36 07:04:22 61° 286° (WNW) 07:08:08 145.980 - 146.000
LilacSat-2 26 Nov 07:03:50 07:07:34 49° 288° (WNW) 07:11:18 437.200
HO-68 26 Nov 07:05:58 07:12:50 45° 98° (E) 07:19:37 435.675
FO-29 26 Nov 07:09:57 07:16:41 48° 63° (ENE) 07:24:01 435.910
DOVE 4 26 Nov 07:15:13 07:18:30 17° 304° (NW) 07:21:42 437.250
KAITUO 1B 26 Nov 07:19:08 07:22:47 47° 289° (WNW) 07:26:26 145.475/437.950
CUTE 1.7 + AOD 2 26 Nov 07:22:23 07:26:38 60° 100° (E) 07:30:53 437.475
PCSat 26 Nov 07:24:03 07:29:18 46° 46° (NE) 07:34:30 145.827
AAUSAT CUBESAT 2 26 Nov 07:32:57 07:36:19 23° 93° (E) 07:39:39 437.432
CUBEBUG 2 26 Nov 07:38:27 07:42:31 51° 100° (E) 07:46:33 437.445
CUTE-I 26 Nov 07:39:19 07:44:29 49° 293° (WNW) 07:49:36 437.470
SEEDS 26 Nov 07:42:15 07:46:28 60° 100° (E) 07:50:41 437.485
STRAND 1 26 Nov 07:48:31 07:53:07 32° 265° (W) 07:57:44 437.568
XW-2D 26 Nov 07:48:53 07:51:36 19° 297° (WNW) 07:54:18 145.860 - 145.880
XW-2A 26 Nov 07:52:12 07:55:20 34° 98° (E) 07:58:27 145.665 - 145.685
UNISAT 6 26 Nov 07:53:17 07:56:08 17° 60° (ENE) 07:58:57 437.425
NUDT-PHONESAT 26 Nov 07:54:48 07:57:42 22° 295° (WNW) 08:00:35 437.300
TIGRISAT 26 Nov 07:56:10 07:58:58 17° 60° (ENE) 08:01:43 435.000
BEESAT 3 26 Nov 07:58:23 08:00:42 15° 26° (NNE) 08:03:01 437.485
ZACube-1 26 Nov 08:02:01 08:05:39 29° 95° (E) 08:09:18 437.345
XW-2B 26 Nov 08:04:26 08:06:31 14° 299° (WNW) 08:08:36 145.730 - 145.750
UWE-3 26 Nov 08:23:46 08:27:57 88° 104° (ESE) 08:32:07 435.000/436.395/437.385
YUBILEINY 26 Nov 08:24:51 08:30:00 16° 312° (NW) 08:35:12 435.215
AO-85 26 Nov 08:28:11 08:29:47 12° 12° (NNE) 08:31:25 145.980
PRISM 26 Nov 08:47:37 08:50:38 20° 61° (ENE) 08:53:40 437.425
DELFI C3 26 Nov 08:48:58 08:50:35 12° 88° (E) 08:52:11 145.870
AO-73 26 Nov 08:49:18 08:53:28 78° 105° (ESE) 08:57:39 145.935
HO-68 26 Nov 08:53:49 09:00:35 46° 299° (WNW) 09:07:17 435.675
FO-29 26 Nov 08:55:04 09:01:44 45° 265° (W) 09:09:05 435.910
CUTE 1.7 + AOD 2 26 Nov 08:59:10 09:02:03 18° 299° (WNW) 09:04:56 437.475
Oscar 11 26 Nov 08:59:28 09:03:47 68° 102° (ESE) 09:08:06 .
PCSat 26 Nov 09:07:41 09:12:37 36° 247° (WSW) 09:17:31 145.827
AAUSAT CUBESAT 2 26 Nov 09:07:58 09:11:54 40° 291° (WNW) 09:15:49 437.432
CUBEBUG 2 26 Nov 09:15:52 09:18:49 19° 298° (WNW) 09:21:43 437.445
SEEDS 26 Nov 09:18:54 09:21:44 18° 299° (WNW) 09:24:34 437.485
BEESAT 2 26 Nov 09:22:39 09:25:52 22° 33° (NNE) 09:29:03 435.950
XW-2A 26 Nov 09:25:27 09:27:48 18° 295° (WNW) 09:30:10 145.665 - 145.685
UNISAT 6 26 Nov 09:27:54 09:32:23 69° 258° (WSW) 09:36:48 437.425
TIGRISAT 26 Nov 09:30:41 09:35:10 70° 257° (WSW) 09:39:35 435.000
BEESAT 3 26 Nov 09:35:07 09:39:03 58° 47° (NE) 09:42:55 437.485
AIST 2D 26 Nov 09:37:43 09:39:59 16° 64° (ENE) 09:42:14 435.315
ZACube-1 26 Nov 09:38:16 09:41:56 31° 293° (WNW) 09:45:37 437.345
EO-79 26 Nov 09:46:55 09:48:12 11° 56° (NE) 09:49:29 145.935-145.965
UWE-3 26 Nov 10:02:07 10:03:47 12° 303° (WNW) 10:05:26 435.000/436.395/437.385
POLYITAN 1 26 Nov 10:02:24 10:04:54 16° 59° (ENE) 10:07:24 437.675
EO-88 26 Nov 10:03:56 10:07:21 36° 98° (E) 10:10:44 145.990 - 145.960
AO-85 26 Nov 10:07:47 10:11:39 27° 35° (NE) 10:15:46 145.980
Max Valier Satellite 26 Nov 10:18:25 10:22:06 77° 103° (ESE) 10:25:47 145.860
PRISM 26 Nov 10:21:33 10:25:34 50° 260° (W) 10:29:39 437.425
DELFI C3 26 Nov 10:21:48 10:25:48 72° 286° (WNW) 10:29:46 145.870
QB50P2 26 Nov 10:24:56 10:28:28 26° 65° (ENE) 10:32:01 145.880/145.840
AO-73 26 Nov 10:27:05 10:29:09 14° 301° (WNW) 10:31:14 145.935
Oscar 11 26 Nov 10:36:44 10:39:27 16° 300° (WNW) 10:42:08 .
HO-68 26 Nov 10:43:41 10:46:35 13° 321° (NW) 10:49:30 435.675
BEESAT 2 26 Nov 10:59:58 11:04:01 72° 234° (SW) 11:07:59 435.950
ESTCUBE 1 26 Nov 11:02:28 11:05:56 21° 92° (E) 11:09:24 437.505/2401.250
DUCHIFAT 1 26 Nov 11:04:50 11:08:51 45° 69° (ENE) 11:12:52 145.980
AIST 2D 26 Nov 11:09:33 11:12:51 41° 262° (W) 11:16:11 435.315
BEESAT 3 26 Nov 11:13:27 11:16:12 18° 246° (WSW) 11:18:55 437.485
NANOSAT C BR1 26 Nov 11:18:28 11:22:39 71° 74° (ENE) 11:26:52 145.865
EO-79 26 Nov 11:19:00 11:23:14 80° 75° (ENE) 11:27:29 145.935-145.965
Oscar 19 26 Nov 11:29:45 11:33:19 19° 57° (ENE) 11:36:53 437.125/150
BUGSAT 1 26 Nov 11:35:47 11:39:17 27° 65° (ENE) 11:42:44 437.445
POLYITAN 1 26 Nov 11:35:58 11:40:11 70° 257° (WSW) 11:44:25 437.675
EO-88 26 Nov 11:38:01 11:40:47 20° 295° (WNW) 11:43:32 145.990 - 145.960
LO-87 26 Nov 11:43:38 11:47:11 73° 101° (E) 11:50:42 145.935 - 145.965
AO-91 26 Nov 11:44:53 11:49:07 24° 62° (ENE) 11:53:14 145.960
AO-85 26 Nov 11:47:49 11:52:26 69° 235° (SW) 11:57:24 145.980
Max Valier Satellite 26 Nov 11:54:08 11:55:23 11° 301° (WNW) 11:56:36 145.860
